Cadillac, MI

6:35 PM EDT on August 23, 2019 (GMT -0400)
Wexford County

Weather History for KCAD - June, 2019

Change the Weather History Date:

Monday, June 10, 2019

  Actual Average Record
Temperature  
Mean Temperature 56 °F -  
Max Temperature 66 °F 72 °F 91 °F (1999)
Min Temperature 45 °F 47 °F 28 °F (1972)
Degree Days  
Heating Degree Days 10    
Growing Degree Days 6 (Base 50)    
Moisture  
Dew Point 53 °F    
Average Humidity 83    
Maximum Humidity 100    
Minimum Humidity 35    
Precipitation  
Precipitation 0.00 in - - ()
Sea Level Pressure  
Sea Level Pressure 29.96 in    
Wind  
Wind Speed 7 mph (NW)    
Max Wind Speed 20 mph    
Max Gust Speed 31 mph    
Visibility 7 miles    
Events Rain    
Averages and records for this station are not official NWS values.
T = Trace of Precipitation, MM = Missing Value Source: NWS Daily Summary

Daily Weather History Graph

Daily Weather History Graph

Search for Another Location

Airport or City:

Astronomy

Jun. 10, 2019 Rise Set
Actual Time 5:57 AM EDT 9:24 PM EDT
Civil Twilight 5:21 AM EDT 10:01 PM EDT
Nautical Twilight 4:33 AM EDT 10:48 PM EDT
Astronomical Twilight 3:33 AM EDT 11:49 PM EDT
Moon 1:56 PM EDT (6/10) 2:28 AM EDT (6/10)
Length of Visible Light 16h 39m
Length of Day
15h 27m
First Quarter, 55% of the Moon is Illuminated
Jun 10
First Quarter
Jun 17
Full
Jun 25
Last Quarter
Jul 2
New
Jul 9
First Quarter

Hourly Weather History & Observations

Time (EDT) Temp. Dew Point Humidity Pressure Visibility Wind Dir Wind Speed Gust Speed Precip Events Conditions
12:16 AM 65.8 °F 64.4 °F 95% 29.93 in 10.0 mi Calm Calm - N/A Rain Light Rain
12:35 AM 65.8 °F 64.4 °F 95% 29.92 in 7.0 mi SSE 3.5 mph - N/A Rain Light Rain
12:36 AM 65.8 °F 64.4 °F 95% 29.92 in 7.0 mi SSE 3.5 mph - N/A Rain Light Rain
12:55 AM 65.8 °F 64.4 °F 95% 29.91 in 7.0 mi Calm Calm - N/A Rain Rain
1:19 AM 65.8 °F 64.4 °F 95% 29.91 in 5.0 mi Calm Calm - N/A Rain Rain
1:37 AM 65.8 °F 64.4 °F 95% 29.90 in 5.0 mi Calm Calm - N/A Rain Light Rain
1:55 AM 66.2 °F 64.4 °F 94% 29.89 in 5.0 mi Calm Calm - N/A Rain Rain
1:56 AM 66.2 °F 64.4 °F 94% 29.89 in 7.0 mi Calm Calm - N/A Rain Rain
2:15 AM 66.2 °F 64.4 °F 94% 29.89 in 5.0 mi Calm Calm - N/A Rain Rain
2:35 AM 66.2 °F 64.4 °F 94% 29.88 in 7.0 mi Calm Calm - N/A Rain Light Rain
2:58 AM 66.0 °F 64.4 °F 94% 29.87 in 5.0 mi SW 3.5 mph - N/A   Drizzle
3:16 AM 66.2 °F 64.4 °F 94% 29.86 in 5.0 mi WSW 3.5 mph - N/A   Heavy Drizzle
3:35 AM 66.2 °F 64.4 °F 94% 29.86 in 5.0 mi West 6.9 mph - N/A Rain Heavy Rain
3:55 AM 65.5 °F 63.9 °F 94% 29.86 in 4.0 mi NW 9.2 mph - N/A Rain Light Rain
4:18 AM 64.6 °F 63.0 °F 94% 29.86 in 10.0 mi NW 11.5 mph - N/A   Drizzle
4:36 AM 63.5 °F 61.9 °F 94% 29.86 in 10.0 mi NW 10.4 mph 18.4 mph N/A   Overcast
4:55 AM 63.0 °F 61.3 °F 94% 29.86 in 10.0 mi NW 8.1 mph - N/A   Overcast
5:15 AM 62.8 °F 61.2 °F 94% 29.85 in 7.0 mi NNW 4.6 mph - N/A   Overcast
5:16 AM 62.8 °F 61.2 °F 94% 29.86 in 7.0 mi NNW 4.6 mph - N/A   Overcast
5:39 AM 62.6 °F 61.0 °F 94% 29.86 in 10.0 mi NNW 8.1 mph - N/A   Overcast
5:57 AM 62.2 °F 60.8 °F 95% 29.86 in 10.0 mi NW 9.2 mph - N/A   Overcast
6:15 AM 62.2 °F 60.8 °F 95% 29.86 in 10.0 mi NW 8.1 mph - N/A   Overcast
6:35 AM 61.9 °F 60.3 °F 94% 29.86 in 7.0 mi North 5.8 mph - N/A   Overcast
6:36 AM 61.9 °F 60.3 °F 94% 29.86 in 7.0 mi North 5.8 mph - N/A   Overcast
6:55 AM 61.7 °F 60.1 °F 94% 29.87 in 7.0 mi North 6.9 mph - N/A   Overcast
7:00 AM 61.7 °F 59.9 °F 94% 29.87 in 5.0 mi North 10.4 mph - N/A   Overcast
7:18 AM 61.3 °F 59.9 °F 95% 29.88 in 3.0 mi NW 8.1 mph - N/A   Overcast
7:36 AM 60.8 °F 59.0 °F 94% 29.89 in 1.0 mi NW 10.4 mph - N/A Rain Rain
7:55 AM 60.8 °F 59.0 °F 94% 29.90 in 1.8 mi NW 9.2 mph - N/A   Drizzle
7:56 AM 60.8 °F 59.0 °F 94% 29.90 in 1.8 mi NW 9.2 mph - N/A   Drizzle
8:15 AM 60.1 °F 58.5 °F 94% 29.91 in 2.0 mi NW 10.4 mph - N/A   Drizzle
8:39 AM 59.0 °F 57.4 °F 94% 29.91 in 1.2 mi NW 12.7 mph 19.6 mph N/A   Heavy Drizzle
9:07 AM 55.4 °F 55.4 °F 100% 29.92 in 2.0 mi NNW 12.7 mph 17.3 mph N/A   Drizzle
9:27 AM 55.4 °F 53.6 °F 94% 29.92 in 2.0 mi NW 13.8 mph 19.6 mph N/A   Drizzle
9:47 AM 55.4 °F 53.8 °F 94% 29.92 in 4.0 mi NNW 13.8 mph 21.9 mph N/A   Light Drizzle
9:55 AM 55.4 °F 54.0 °F 95% 29.93 in 3.0 mi NW 12.7 mph 19.6 mph N/A   Drizzle
9:56 AM 55.4 °F 54.0 °F 95% 29.93 in 2.5 mi NW 13.8 mph 19.6 mph N/A   Drizzle
10:15 AM 55.4 °F 53.8 °F 94% 29.93 in 2.5 mi NNW 12.7 mph 19.6 mph N/A   Drizzle
10:35 AM 55.2 °F 53.6 °F 94% 29.94 in 3.0 mi NW 15.0 mph 20.7 mph N/A   Drizzle
10:39 AM 54.9 °F 53.2 °F 94% 29.94 in 2.5 mi NW 11.5 mph 21.9 mph N/A   Drizzle
10:58 AM 54.5 °F 52.7 °F 94% 29.95 in 3.0 mi NW 13.8 mph 23.0 mph N/A   Light Drizzle
11:16 AM 54.5 °F 52.7 °F 94% 29.95 in 4.0 mi NW 9.2 mph 19.6 mph N/A   Light Drizzle
11:35 AM 54.9 °F 53.2 °F 94% 29.96 in 10.0 mi NW 15.0 mph 20.7 mph N/A   Overcast
11:55 AM 53.8 °F 52.2 °F 94% 29.96 in 10.0 mi NNW 11.5 mph 21.9 mph N/A   Overcast
11:56 AM 53.8 °F 52.2 °F 94% 29.96 in 10.0 mi NW 10.4 mph 21.9 mph N/A   Overcast
12:19 PM 54.0 °F 52.5 °F 95% 29.97 in 7.0 mi WNW 17.3 mph - N/A   Overcast
12:37 PM 53.6 °F 51.8 °F 94% 29.98 in 2.5 mi NW 12.7 mph 24.2 mph N/A   Overcast
12:55 PM 53.4 °F 51.8 °F 94% 29.98 in 3.0 mi NW 16.1 mph 24.2 mph N/A   Drizzle
1:15 PM 54.0 °F 52.5 °F 95% 29.98 in 1.8 mi NW 13.8 mph 20.7 mph N/A   Drizzle
1:16 PM 54.0 °F 52.5 °F 95% 29.99 in 1.8 mi NW 13.8 mph 20.7 mph N/A   Drizzle
1:35 PM 54.5 °F 52.9 °F 94% 29.99 in 2.0 mi NW 13.8 mph 19.6 mph N/A Rain Light Rain
1:58 PM 54.7 °F 53.1 °F 94% 30.00 in 10.0 mi NW 15.0 mph 19.6 mph N/A   Overcast
2:16 PM 56.1 °F 54.5 °F 94% 30.00 in 10.0 mi NW 12.7 mph 23.0 mph N/A   Overcast
2:35 PM 58.8 °F 55.6 °F 89% 30.00 in 10.0 mi NW 16.1 mph 24.2 mph N/A   Overcast
2:36 PM 59.0 °F 55.8 °F 89% 30.00 in 10.0 mi NW 12.7 mph 24.2 mph N/A   Overcast
2:55 PM 59.5 °F 55.0 °F 85% 30.00 in 10.0 mi NW 13.8 mph 25.3 mph N/A   Overcast
3:19 PM 62.2 °F 54.0 °F 74% 30.01 in 10.0 mi NW 18.4 mph 26.5 mph N/A   Overcast
3:37 PM 61.7 °F 51.6 °F 69% 30.01 in 10.0 mi NW 17.3 mph 29.9 mph N/A   Overcast
3:55 PM 63.1 °F 49.6 °F 61% 30.02 in 10.0 mi NW 17.3 mph 28.8 mph N/A   Overcast
3:56 PM 63.0 °F 49.5 °F 61% 30.02 in 10.0 mi NW 18.4 mph 28.8 mph N/A   Overcast
4:15 PM 64.2 °F 49.8 °F 59% 30.02 in 10.0 mi NW 12.7 mph 28.8 mph N/A   Mostly Cloudy
4:35 PM 63.5 °F 47.8 °F 57% 30.02 in 10.0 mi NNW 19.6 mph 26.5 mph N/A   Overcast
4:58 PM 65.1 °F 47.3 °F 52% 30.03 in 10.0 mi NW 16.1 mph 23.0 mph N/A   Scattered Clouds
5:16 PM 65.8 °F 46.0 °F 49% 30.02 in 10.0 mi NNW 15.0 mph 23.0 mph N/A   Mostly Cloudy
5:35 PM 66.9 °F 43.2 °F 42% 30.03 in 10.0 mi NNW 17.3 mph 26.5 mph N/A   Mostly Cloudy
5:55 PM 65.1 °F 40.5 °F 40% 30.03 in 10.0 mi WNW 19.6 mph 24.2 mph N/A   Scattered Clouds
6:19 PM 66.2 °F 41.4 °F 40% 30.03 in 10.0 mi NW 12.7 mph 24.2 mph N/A   Scattered Clouds
6:37 PM 65.7 °F 39.2 °F 38% 30.03 in 10.0 mi NW 16.1 mph 31.1 mph N/A   Scattered Clouds
6:55 PM 65.3 °F 40.1 °F 40% 30.04 in 10.0 mi NW 16.1 mph 23.0 mph N/A   Clear
7:15 PM 64.9 °F 39.2 °F 39% 30.05 in 10.0 mi NW 12.7 mph 21.9 mph N/A   Clear
7:35 PM 64.4 °F 36.3 °F 35% 30.05 in 10.0 mi NNW 11.5 mph 18.4 mph N/A   Clear
7:58 PM 63.5 °F 37.6 °F 38% 30.05 in 10.0 mi NNW 5.8 mph - N/A   Clear
8:16 PM 62.6 °F 36.7 °F 38% 30.06 in 10.0 mi NNW 6.9 mph - N/A   Clear
8:35 PM 61.2 °F 38.3 °F 43% 30.07 in 10.0 mi NNW 4.6 mph - N/A   Clear
8:55 PM 59.9 °F 39.0 °F 46% 30.07 in 10.0 mi NW 3.5 mph - N/A   Clear
9:19 PM 57.9 °F 39.9 °F 51% 30.08 in 10.0 mi Calm Calm - N/A   Clear
9:37 PM 53.2 °F 41.9 °F 65% 30.08 in 10.0 mi Calm Calm - N/A   Clear
9:55 PM 49.3 °F 45.1 °F 86% 30.08 in 10.0 mi Calm Calm - N/A   Clear
10:15 PM 48.7 °F 46.6 °F 92% 30.08 in 10.0 mi Calm Calm - N/A   Clear
10:35 PM 49.1 °F 47.7 °F 95% 30.08 in 10.0 mi Calm Calm - N/A   Clear
10:39 PM 48.7 °F 47.3 °F 95% 30.08 in 10.0 mi Calm Calm - N/A   Clear
10:58 PM 47.5 °F 45.9 °F 94% 30.09 in 10.0 mi Calm Calm - N/A   Clear
11:16 PM 46.8 °F 45.3 °F 95% 30.09 in 10.0 mi Calm Calm - N/A   Clear
11:35 PM 46.8 °F 45.5 °F 95% 30.09 in 10.0 mi Calm Calm - N/A   Clear
11:55 PM 45.3 °F 43.7 °F 94% 30.08 in 10.0 mi Calm Calm - N/A   Clear
11:56 PM 45.3 °F 43.9 °F 95% 30.08 in 10.0 mi Calm Calm - N/A   Clear